[[{"header":{"parameterUnit":"m.s-1","parameterCategory":1,"la1":30.2991,"la2":30.254,"lo1":-89.0895,"lo2":-89.0444,"dy":0.0017,"dx":0.0017,"nx":28,"ny":28,"refTime":"2025-08-03T21:00:00:Z","depth":0,"parameterNumber":2,"parameterNumberName":"U-component_of_WINDS"},"data":[0,0,0,0,0,0,0,0,0,0,0,0,0,0,0,0,0,0,0,0,0,0,0,0,0,0,0,0,0,0,0,0,0,0,0,0,0,0,0,0,0,0,0,0,0,0,0,0,0,0,0,0,0,0,0,0,0,0,-0.4494,-0.4494,0,-0.4463,-0.4463,-0.4462,-0.4432,-0.4431,-0.4431,-0.443,-0.4395,-0.4394,-0.4393,0,0,0,0,0,0,0,0,0,0,0,0,0,-0.4526,-0.4525,-0.4494,-0.4494,-0.4494,-0.4463,-0.4463,-0.4462,-0.4432,-0.4431,-0.4431,-0.443,-0.4395,-0.4394,-0.4393,0,0,0,0,0,0,0,0,0,0,0,0,0,-0.4505,-0.4525,-0.4494,-0.4475,-0.4473,-0.4463,-0.4463,-0.4462,-0.4432,-0.4431,-0.4431,-0.443,-0.4395,-0.4394,-0.4393,-0.44,0,0,-0.4391,-0.439,0,0,0,0,0,0,0,0,-0.4506,-0.4504,-0.4478,-0.4476,-0.4474,-0.4451,-0.4461,-0.4441,-0.4432,-0.4447,-0.443,-0.443,-0.4413,-0.4411,-0.4406,-0.4398,-0.4396,-0.439,-0.439,-0.439,-0.4389,0,0,0,0,0,0,0,-0.4508,-0.4505,-0.4482,-0.4478,-0.4475,-0.4467,-0.4463,-0.4457,-0.4434,-0.4446,-0.4443,-0.444,-0.4412,-0.4407,-0.4405,-0.4396,-0.439,-0.439,-0.4389,-0.4389,-0.4394,-0.4395,0,0,0,0,0,0,-0.4512,-0.4506,-0.4483,-0.4481,-0.4489,-0.4467,-0.4463,-0.4459,-0.4434,-0.443,-0.4441,-0.4439,-0.4409,-0.4406,-0.4404,-0.4411,-0.439,-0.4389,-0.4388,-0.4393,-0.4394,-0.4395,0,0,0,0,0,0,-0.4513,-0.4511,-0.4484,-0.4493,-0.4489,-0.4467,-0.4462,-0.4458,-0.4453,-0.443,-0.4426,-0.444,-0.4408,-0.4405,-0.4402,-0.441,-0.4388,-0.4388,-0.4393,-0.4394,-0.4395,-0.4425,0,0,0,0,0,0,-0.4514,-0.4511,-0.4513,-0.4493,-0.4489,-0.4483,-0.4463,-0.4458,-0.4452,-0.445,-0.4428,-0.4424,-0.4408,-0.4403,-0.4401,-0.4408,-0.4387,-0.4392,-0.4393,-0.4394,-0.4424,-0.4427,-0.4431,0,0,0,0,0,-0.4516,-0.4522,-0.4514,-0.4511,-0.4491,-0.4483,-0.4481,-0.4463,-0.4453,-0.4455,-0.4441,-0.4425,-0.4409,-0.4403,-0.44,-0.4407,-0.4391,-0.4393,-0.4394,-0.4422,-0.4427,-0.4431,0,0,0,0,0,0,-0.4541,-0.4519,-0.4509,-0.451,-0.4499,-0.4478,-0.448,-0.4468,-0.4458,-0.4456,-0.4433,-0.4428,-0.4428,-0.4417,-0.4411,-0.4414,-0.4398,-0.4399,-0.442,-0.4425,-0.4428,-0.443,-0.4386,0,0,0,0,0,-0.4547,-0.4544,-0.4524,-0.4526,-0.4522,-0.4502,-0.4498,-0.4485,-0.4473,-0.4468,-0.4453,-0.444,-0.4433,-0.4428,-0.442,-0.4422,-0.4418,-0.4426,-0.4429,-0.4432,-0.4433,-0.4436,-0.444,-0.44,-0.44,-0.44,0,0,-0.4559,-0.4546,-0.4545,-0.4531,-0.4521,-0.4518,-0.4498,-0.4495,-0.4492,-0.4466,-0.4463,-0.4452,-0.4437,-0.4438,-0.4437,-0.4428,-0.4444,-0.4434,-0.4437,-0.4436,-0.4438,-0.4442,-0.4445,-0.4401,-0.4401,-0.44,0,0,-0.4579,-0.4569,-0.457,-0.4562,-0.4548,-0.4536,-0.4537,-0.4519,-0.4511,-0.4508,-0.449,-0.4486,-0.4473,-0.4464,-0.4457,-0.4477,-0.4463,-0.4475,-0.4493,-0.4496,-0.4499,-0.4502,-0.451,-0.4513,-0.4476,-0.4476,-0.4477,0,-0.4594,-0.4589,-0.4572,-0.4571,-0.4566,-0.4546,-0.4548,-0.454,-0.4523,-0.452,-0.4512,-0.4497,-0.4485,-0.4484,-0.449,-0.4485,-0.4485,-0.4477,-0.45,-0.4503,-0.4505,-0.4513,-0.4516,-0.4478,-0.4478,-0.4478,-0.4478,0,-0.461,-0.4607,-0.461,-0.4598,-0.4593,-0.4593,-0.4576,-0.4574,-0.4563,-0.4551,-0.4549,-0.4535,-0.4525,-0.4523,-0.4511,-0.4521,-0.4517,-0.4505,-0.4489,-0.4511,-0.4518,-0.452,-0.4481,-0.448,-0.4479,-0.4479,0,0,-0.4643,-0.4624,-0.4625,-0.462,-0.4605,-0.4602,-0.4603,-0.4594,-0.4593,-0.4583,-0.4583,-0.4574,-0.4564,-0.4557,-0.4544,-0.4546,-0.4566,-0.4534,-0.4533,-0.4541,-0.4577,-0.4587,-0.4591,-0.4556,-0.4557,-0.4557,-0.4579,0,-0.466,-0.466,-0.4646,-0.465,-0.4648,-0.463,-0.463,-0.4621,-0.4611,-0.4608,-0.4596,-0.4591,-0.4577,-0.4573,-0.4575,-0.4563,-0.4572,-0.4561,-0.4556,-0.4556,-0.456,-0.4594,-0.4603,-0.4624,-0.4582,-0.4582,-0.4582,0,-0.468,-0.4674,-0.4678,-0.4666,-0.4665,-0.4665,-0.4658,-0.4655,-0.4645,-0.4638,-0.4632,-0.4618,-0.4617,-0.4604,-0.4603,-0.4596,-0.4593,-0.4587,-0.4587,-0.4586,-0.457,-0.4594,-0.463,-0.4634,-0.4586,-0.4586,-0.4585,0,-0.4704,-0.4698,-0.47,-0.4696,-0.4682,-0.4683,-0.4677,-0.4666,-0.4663,-0.4657,-0.4655,-0.4648,-0.4644,-0.4639,-0.4624,-0.4615,-0.4626,-0.461,-0.462,-0.462,-0.4622,-0.4622,-0.4659,-0.462,-0.462,-0.462,-0.462,0,-0.4725,-0.4729,-0.4711,-0.4712,-0.4716,-0.4701,-0.4705,-0.4697,-0.4689,-0.4688,-0.4672,-0.4672,-0.4652,-0.465,-0.4638,-0.464,-0.4638,-0.4633,-0.463,-0.4634,-0.4635,-0.4632,-0.463,-0.4621,-0.4621,-0.4621,-0.462,0,-0.4753,-0.4741,-0.4743,-0.473,-0.4727,-0.4731,-0.4719,-0.472,-0.4711,-0.4711,-0.471,-0.4694,-0.4691,-0.4677,-0.4669,-0.4662,-0.4668,-0.4661,-0.4672,-0.467,-0.4681,-0.468,-0.4717,-0.4721,-0.468,-0.468,-0.4681,0,-0.4766,-0.4769,-0.4758,-0.4758,-0.4753,-0.4752,-0.4749,-0.4735,-0.4733,-0.4724,-0.4726,-0.4722,-0.4718,-0.4714,-0.4702,-0.4697,-0.4691,-0.4704,-0.469,-0.4695,-0.4692,-0.4692,-0.4693,-0.4707,-0.4707,-0.4708,-0.4708,0,-0.4793,-0.4788,-0.4786,-0.4783,-0.4781,-0.4777,-0.4772,-0.4772,-0.4757,-0.4756,-0.4754,-0.4751,-0.4745,-0.4742,-0.4735,-0.4728,-0.4716,-0.4713,-0.4716,-0.472,-0.4726,-0.4724,-0.468,-0.4712,-0.4712,-0.4711,-0.4711,-0.4711,-0.4814,-0.4817,-0.481,-0.4809,-0.4805,-0.4801,-0.4802,-0.4794,-0.4793,-0.4788,-0.478,-0.4779,-0.4771,-0.4762,-0.4757,-0.4756,-0.4749,-0.4751,-0.4752,-0.4753,-0.4756,-0.4727,-0.4755,-0.4755,-0.4754,-0.4754,-0.4754,0,-0.484,-0.4836,-0.4835,-0.4831,-0.483,-0.4821,-0.4816,-0.4816,-0.4816,-0.4811,-0.4808,-0.4807,-0.4804,-0.4794,-0.479,-0.4792,-0.4786,-0.4791,-0.4791,-0.479,-0.4762,-0.4761,-0.4796,-0.4796,-0.4796,-0.4796,-0.4796,-0.4796,-0.4854,-0.4858,-0.4853,-0.4856,-0.4851,-0.4852,-0.485,-0.4847,-0.4843,-0.4843,-0.4842,-0.4835,-0.4828,-0.4824,-0.4822,-0.4819,-0.4819,-0.4826,-0.4821,-0.4795,-0.4791,-0.4787,-0.4786,-0.4826,-0.4826,-0.4848,-0.4849,-0.4849]},{"header":{"parameterUnit":"m.s-1","parameterCategory":1,"la1":30.2991,"la2":30.254,"lo1":-89.0895,"lo2":-89.0444,"dy":0.0017,"dx":0.0017,"nx":28,"ny":28,"refTime":"2025-08-03T21:00:00:Z","depth":0,"parameterNumber":3,"parameterNumberName":"V-component_of_WINDS"},"data":[0,0,0,0,0,0,0,0,0,0,0,0,0,0,0,0,0,0,0,0,0,0,0,0,0,0,0,0,0,0,0,0,0,0,0,0,0,0,0,0,0,0,0,0,0,0,0,0,0,0,0,0,0,0,0,0,0,0,0.6127,0.6126,0,0.6036,0.6035,0.6034,0.601,0.601,0.6011,0.6011,0.592,0.5918,0.5915,0,0,0,0,0,0,0,0,0,0,0,0,0,0.6283,0.628,0.6127,0.6126,0.6125,0.6036,0.6035,0.6034,0.601,0.601,0.6011,0.6012,0.5921,0.5918,0.5914,0,0,0,0,0,0,0,0,0,0,0,0,0,0.6206,0.6279,0.6127,0.6102,0.6099,0.6037,0.6035,0.6034,0.601,0.601,0.6011,0.6012,0.5922,0.5918,0.5914,0.5871,0,0,0.5901,0.5899,0,0,0,0,0,0,0,0,0.621,0.62,0.6107,0.6103,0.61,0.6035,0.6057,0.5979,0.6009,0.6043,0.6011,0.6012,0.5958,0.5951,0.5932,0.5867,0.5863,0.59,0.5898,0.5896,0.5894,0,0,0,0,0,0,0,0.6216,0.6204,0.6091,0.6105,0.6101,0.6096,0.6086,0.6042,0.5997,0.6041,0.6039,0.6028,0.5956,0.5936,0.593,0.5861,0.59,0.5896,0.5894,0.5892,0.5759,0.5758,0,0,0,0,0,0,0.6225,0.6209,0.6094,0.6088,0.6158,0.6093,0.6082,0.6055,0.5998,0.599,0.6028,0.6027,0.5943,0.5935,0.5927,0.5873,0.5896,0.5892,0.5889,0.576,0.5759,0.5758,0,0,0,0,0,0,0.6228,0.6215,0.6098,0.6148,0.6133,0.6089,0.606,0.6053,0.6033,0.5988,0.598,0.6015,0.5944,0.5933,0.5885,0.587,0.589,0.5886,0.5761,0.5759,0.5758,0.5766,0,0,0,0,0,0,0.6233,0.6216,0.6198,0.6148,0.613,0.6057,0.6059,0.6051,0.6025,0.6024,0.5974,0.5967,0.5944,0.5892,0.5881,0.5864,0.5882,0.5762,0.576,0.5759,0.5767,0.5765,0.5763,0,0,0,0,0,0.6238,0.6204,0.6197,0.6184,0.6107,0.6056,0.6046,0.6019,0.6024,0.6006,0.5978,0.5968,0.5874,0.5887,0.5875,0.5856,0.5763,0.5761,0.5759,0.5767,0.5765,0.5763,0,0,0,0,0,0,0.6254,0.6197,0.6189,0.6137,0.6101,0.6052,0.6028,0.6017,0.598,0.5981,0.595,0.5939,0.5894,0.5871,0.5887,0.5813,0.5818,0.5814,0.5829,0.5827,0.5825,0.5831,0.5879,0,0,0,0,0,0.6251,0.6214,0.6167,0.6125,0.6108,0.6072,0.6048,0.6031,0.5994,0.5978,0.5946,0.5911,0.5874,0.5849,0.5812,0.5764,0.5754,0.5746,0.5744,0.5743,0.5739,0.5713,0.5709,0.5751,0.5751,0.5751,0,0,0.6245,0.621,0.6188,0.6128,0.6098,0.6061,0.6059,0.6019,0.5992,0.5973,0.5926,0.5902,0.586,0.5813,0.579,0.5792,0.5725,0.574,0.5739,0.5736,0.571,0.5707,0.5703,0.5749,0.575,0.575,0,0,0.6215,0.6184,0.6147,0.6118,0.6073,0.605,0.6041,0.5994,0.5977,0.593,0.5915,0.5883,0.5818,0.579,0.5767,0.573,0.572,0.5719,0.5709,0.5685,0.5681,0.5678,0.5665,0.5661,0.5715,0.5715,0.5715,0,0.6213,0.6156,0.6129,0.6091,0.6065,0.6047,0.601,0.5983,0.5929,0.5913,0.5916,0.5836,0.5806,0.5753,0.5744,0.5726,0.5716,0.5723,0.5684,0.5681,0.5677,0.5665,0.566,0.5715,0.5715,0.5715,0.5715,0,0.6156,0.6117,0.6092,0.6041,0.6013,0.5975,0.5945,0.592,0.5907,0.5884,0.5837,0.5802,0.5758,0.5744,0.5731,0.5689,0.5692,0.569,0.5694,0.5674,0.5661,0.5656,0.5716,0.5716,0.5716,0.5715,0,0,0.613,0.6066,0.6057,0.6034,0.5986,0.5955,0.5919,0.5876,0.5855,0.582,0.5789,0.5736,0.5735,0.5709,0.5692,0.5671,0.5645,0.5672,0.567,0.5668,0.5598,0.5599,0.5594,0.5639,0.5638,0.5637,0.5602,0,0.6093,0.6025,0.6001,0.5945,0.591,0.5893,0.5862,0.5829,0.5807,0.5775,0.5752,0.5715,0.5716,0.57,0.5679,0.5653,0.563,0.5655,0.561,0.5609,0.5619,0.5587,0.5588,0.5556,0.5597,0.5596,0.5595,0,0.604,0.6004,0.5944,0.5902,0.5886,0.5858,0.5817,0.5787,0.5751,0.5737,0.571,0.5695,0.5658,0.5666,0.5615,0.5632,0.5613,0.5598,0.5597,0.559,0.56,0.558,0.5545,0.554,0.5587,0.5588,0.5589,0,0.6027,0.5964,0.592,0.5901,0.5851,0.5831,0.5809,0.5774,0.5751,0.5717,0.5701,0.5663,0.5642,0.5614,0.5591,0.5599,0.5542,0.5548,0.553,0.5531,0.5517,0.5518,0.5478,0.5507,0.5507,0.5507,0.5507,0,0.5987,0.5951,0.5913,0.5886,0.5847,0.5822,0.5783,0.5761,0.5731,0.57,0.5685,0.5657,0.5628,0.5597,0.5579,0.554,0.5531,0.5519,0.5515,0.552,0.5521,0.5505,0.5507,0.5506,0.5506,0.5506,0.5506,0,0.5964,0.5937,0.5889,0.5846,0.5835,0.5807,0.5771,0.5745,0.5724,0.5686,0.5676,0.5643,0.5606,0.5581,0.5533,0.5522,0.5479,0.5475,0.5491,0.5488,0.5471,0.5473,0.5418,0.541,0.5446,0.5445,0.5445,0,0.594,0.5912,0.5867,0.5845,0.5823,0.5789,0.5765,0.574,0.5717,0.5675,0.5655,0.5617,0.5585,0.5527,0.55,0.5464,0.5459,0.5442,0.5453,0.546,0.5458,0.5459,0.5457,0.544,0.544,0.544,0.5439,0,0.59,0.5888,0.5854,0.5816,0.5788,0.5757,0.5726,0.571,0.568,0.5655,0.5616,0.5592,0.5544,0.5507,0.5469,0.5449,0.5439,0.5437,0.543,0.5434,0.5444,0.5439,0.5485,0.5437,0.5438,0.5438,0.5438,0.5438,0.5874,0.5849,0.5814,0.5777,0.5752,0.5724,0.5698,0.5674,0.5642,0.56,0.5589,0.555,0.5517,0.5466,0.5445,0.5415,0.5416,0.5407,0.5404,0.5402,0.5402,0.5451,0.5408,0.5408,0.5408,0.5408,0.5408,0,0.5833,0.581,0.5777,0.5734,0.5705,0.57,0.5666,0.5643,0.5608,0.5579,0.5548,0.5506,0.5471,0.5442,0.5406,0.5388,0.5383,0.5379,0.5379,0.5375,0.5403,0.5412,0.5384,0.5384,0.5384,0.5384,0.5384,0.5384,0.5808,0.5765,0.5751,0.5697,0.5674,0.5635,0.5616,0.5591,0.5567,0.552,0.5491,0.5473,0.5444,0.5406,0.5375,0.5367,0.5355,0.5352,0.5343,0.537,0.5373,0.5375,0.5383,0.5349,0.5349,0.5317,0.5317,0.5317]}]]